Location: Brunsen
(51.8651°N, 9.8610°E)
Time: 18:13:10
(UTC+00:00)

Cosmos 2181 Rocket - Visible Passes

Search period start: 07 October 2024 00:00
Search period end: 17 October 2024 00:00
Orbit: 952 x 1014 km, 82.9° (Epoch: 06 October)

Date Brightness Start Highest point End Pass type
(mag) Time Alt. Az. Time Alt. Az. Time Alt. Az.
07 Oct 6.1 01:15:11 17° NNW 01:15:11 17° NNW 01:17:31 10° NNW visible
07 Oct 6.2 22:13:03 17° NNE 22:13:03 17° NNE 22:14:30 10° NNE visible
07 Oct 5.9 23:57:53 24° N 23:57:53 24° N 00:00:23 10° N visible
08 Oct 6.3 01:42:42 11° NW 01:42:42 11° NW 01:43:50 10° NNW visible
08 Oct 6.1 22:40:34 20° NNE 22:40:34 20° NNE 22:42:24 10° NNE visible
09 Oct 6.0 00:25:23 20° NNW 00:25:23 20° NNW 00:27:44 10° N visible
09 Oct 6.5 21:23:15 11° NE 21:23:15 11° NE 21:23:27 10° NNE visible
09 Oct 6.1 23:08:04 22° N 23:08:04 22° N 23:10:07 10° N visible
10 Oct 6.2 00:52:53 16° NNW 00:52:53 16° NNW 00:54:48 10° NNW visible
10 Oct 6.4 21:50:44 14° NNE 21:50:44 14° NNE 21:51:43 10° NNE visible
10 Oct 6.1 23:35:34 21° N 23:35:34 21° N 23:37:38 10° N visible
11 Oct 6.4 01:20:23 11° NNW 01:20:23 11° NNW 01:21:11 10° NNW visible
11 Oct 6.3 22:18:14 17° NNE 22:18:14 17° NNE 22:19:38 10° NNE visible
12 Oct 6.2 00:03:03 19° NNW 00:03:03 19° NNW 00:04:59 10° N visible
12 Oct 6.2 22:45:43 19° N 22:45:43 19° N 22:47:20 10° N visible
13 Oct 6.3 00:30:32 15° NNW 00:30:32 15° NNW 00:32:04 10° NNW visible
13 Oct 6.4 21:28:23 12° NNE 21:28:23 12° NNE 21:28:56 10° NNE visible
13 Oct 6.3 23:13:12 19° N 23:13:12 19° N 23:14:52 10° N visible
14 Oct 6.5 00:58:01 11° NNW 00:58:01 11° NNW 00:58:31 10° NNW visible
14 Oct 6.4 21:55:52 15° NNE 21:55:52 15° NNE 21:56:51 10° NNE visible
14 Oct 6.3 23:40:40 17° NNW 23:40:40 17° NNW 23:42:13 10° N visible
15 Oct 6.4 22:23:19 17° N 22:23:19 17° N 22:24:34 10° N visible
16 Oct 6.5 00:08:09 14° NNW 00:08:09 14° NNW 00:09:20 10° N visible
16 Oct 6.5 21:05:59 11° NNE 21:05:59 11° NNE 21:06:06 10° NNE visible
16 Oct 6.4 22:50:48 17° N 22:50:48 17° N 22:52:06 10° N visible
